Kekaha, HI

6:15 PM HST on September 25, 2016 (GMT -1000)
Barking Sands PMRF

Weather History for PHBK - April, 2014

Change the Weather History Date:

Thursday, April 3, 2014

  Actual Average Record
Temperature  
Mean Temperature 75 °F -  
Max Temperature 82 °F 82 °F 86 °F (1970)
Min Temperature 68 °F 62 °F 1 °F (2013)
Cooling Degree Days 10    
Growing Degree Days 25 (Base 50)    
Moisture  
Dew Point 62 °F    
Average Humidity 62    
Maximum Humidity 73    
Minimum Humidity 54    
Precipitation  
Precipitation 0.00 in - - ()
Sea Level Pressure  
Sea Level Pressure 30.11 in    
Wind  
Wind Speed 4 mph (West)    
Max Wind Speed 9 mph    
Max Gust Speed -    
Visibility 10 miles    
Events      
Averages and records for this station are not official NWS values.
T = Trace of Precipitation, MM = Missing Value Source: NWS Daily Summary

Daily Weather History Graph

Daily Weather History Graph

Search for Another Location

Airport or City:

Trip Planner

Search our weather history database for the weather conditions in past years. The results will help you decide how hot, cold, wet, or windy it might be!

Date:

Astronomy

Apr. 03, 2014 Rise Set
Actual Time 6:29 AM HST 6:55 PM HST
Civil Twilight 6:07 AM HST 7:17 PM HST
Nautical Twilight 5:41 AM HST 7:43 PM HST
Astronomical Twilight 5:14 AM HST 8:10 PM HST
Moon 9:31 AM HST (4/3) 10:59 PM HST (4/3)
Length of Visible Light 13h 10m
Length of Day
12h 25m
Waxing Crescent, 19% of the Moon is Illuminated
Apr 3
Waxing Crescent
Apr 6
First Quarter
Apr 14
Full
Apr 21
Last Quarter
Apr 28
New

Hourly Weather History & Observations

Time (HST) Temp. Heat Index Dew Point Humidity Pressure Visibility Wind Dir Wind Speed Gust Speed Precip Events Conditions
12:56 AM - - - N/A% 30.15 in 10.0 mi East 3.5 mph - N/A   Clear
1:56 AM - - - N/A% 30.14 in 10.0 mi NNE 3.5 mph - N/A   Clear
2:56 AM - - - N/A% 30.12 in 10.0 mi Calm Calm - N/A   Clear
3:56 AM - - - N/A% 30.12 in 10.0 mi Calm Calm - N/A   Clear
4:56 AM - - - N/A% 30.12 in 10.0 mi SSE 3.5 mph - N/A   Clear
5:56 AM - - - N/A% 30.12 in 10.0 mi Calm Calm - N/A   Clear
6:56 AM - - - N/A% 30.14 in 10.0 mi ESE 3.5 mph - N/A   Clear
7:56 AM - - - N/A% 30.15 in 10.0 mi East 3.5 mph - N/A   Clear
8:56 AM 75.9 °F - 63.0 °F 64% 30.16 in 10.0 mi NW 3.5 mph - N/A   Clear
9:56 AM 78.1 °F - 64.0 °F 62% 30.16 in 10.0 mi SW 5.8 mph - N/A   Clear
10:56 AM 78.1 °F - 64.9 °F 64% 30.15 in 10.0 mi WNW 9.2 mph - N/A   Clear
11:56 AM 79.0 °F - 64.0 °F 60% 30.14 in 10.0 mi WNW 8.1 mph - N/A   Clear
12:56 PM 80.1 °F 81.7 °F 64.0 °F 58% 30.10 in 10.0 mi West 8.1 mph - N/A   Clear
1:56 PM 82.0 °F 83.4 °F 64.0 °F 54% 30.07 in 10.0 mi West 9.2 mph - N/A   Clear
2:56 PM 80.1 °F 81.7 °F 64.0 °F 58% 30.06 in 10.0 mi West 8.1 mph - N/A   Clear
3:56 PM 81.0 °F 82.5 °F 64.0 °F 56% 30.05 in 10.0 mi West 6.9 mph - N/A   Clear
5:56 PM 78.1 °F - 64.9 °F 64% 30.06 in 10.0 mi WSW 3.5 mph - N/A   Partly Cloudy
6:56 PM 78.1 °F - 64.9 °F 64% 30.07 in 9.0 mi West 5.8 mph - N/A   Mostly Cloudy
7:56 PM 73.9 °F - 63.0 °F 68% 30.09 in 10.0 mi SE 3.5 mph - N/A   Mostly Cloudy
8:56 PM 73.0 °F - 57.0 °F 57% 30.11 in 10.0 mi East 3.5 mph - N/A   Partly Cloudy
9:56 PM 71.1 °F - 57.9 °F 63% 30.12 in 10.0 mi Calm Calm - N/A   Clear
10:56 PM 68.0 °F - 59.0 °F 73% 30.12 in 10.0 mi ESE 3.5 mph - N/A   Clear
11:56 PM 68.0 °F - 57.9 °F 70% 30.12 in 10.0 mi ENE 4.6 mph - N/A   Clear